,,Stat5,,Stat1,,Stat2,,Stat3,,Stat4,,Wind1,,Wind1,
time,status,PA1M_AVG,status,PR1M_SUM,status,RH1M_AVG,status,SR1M_AVG,status,TA1M_AVG,status,W1dAve1m,status,W1sAve1m,
2001-09-30, 00:00:00,VALID,917.838,VALID,0,VALID,98.3599,VALID,0,VALID,19.2669,VALID,313,VALID,0,
2001-09-30, 00:01:00,VALID,917.838,VALID,0,VALID,98.3802,VALID,0,VALID,19.2671,VALID,313,VALID,0,
2001-09-30, 00:02:00,VALID,917.836,VALID,0,VALID,98.4095,VALID,-0.101885,VALID,19.2656,VALID,313,VALID,0,
2001-09-30, 00:03:00,VALID,917.814,VALID,0,VALID,98.4832,VALID,-0.101885,VALID,19.2557,VALID,314,VALID,0,
2001-09-30, 00:04:00,VALID,917.821,VALID,0,VALID,98.543,VALID,-0.101885,VALID,19.2654,VALID,314,VALID,0,
2001-09-30, 00:05:00,VALID,917.825,VALID,0,VALID,98.5786,VALID,-0.101885,VALID,19.2755,VALID,320,VALID,0,
2001-09-30, 00:06:00,VALID,917.816,VALID,0,VALID,98.5977,VALID,-0.101885,VALID,19.246,VALID,320,VALID,0,
2001-09-30, 00:07:00,VALID,917.8,VALID,0,VALID,98.6091,VALID,-0.101885,VALID,19.2363,VALID,320,VALID,0,
2001-09-30, 00:08:00,VALID,917.802,VALID,0,VALID,98.6358,VALID,-0.118866,VALID,19.2298,VALID,320,VALID,0,
2001-09-30, 00:09:00,VALID,917.796,VALID,0,VALID,98.6536,VALID,-0.101885,VALID,19.2333,VALID,324,VALID,0,
2001-09-30, 00:10:00,VALID,917.794,VALID,0,VALID,98.674,VALID,-0.101885,VALID,19.2303,VALID,324,VALID,0,
2001-09-30, 00:11:00,VALID,917.792,VALID,0,VALID,98.688,VALID,-0.0849042,VALID,19.204,VALID,324,VALID,0,
2001-09-30, 00:12:00,VALID,917.801,VALID,0,VALID,98.7261,VALID,-0.101885,VALID,19.2109,VALID,324,VALID,0,
2001-09-30, 00:13:00,VALID,917.8,VALID,0,VALID,98.7363,VALID,-0.135847,VALID,19.2042,VALID,324,VALID,0,
2001-09-30, 00:14:00,VALID,917.807,VALID,0,VALID,98.7655,VALID,-0.101885,VALID,19.2174,VALID,324,VALID,0,
2001-09-30, 00:15:00,VALID,917.814,VALID,0,VALID,98.7782,VALID,-0.118866,VALID,19.2306,VALID,324,VALID,0,
2001-09-30, 00:16:00,VALID,917.81,VALID,0,VALID,98.7948,VALID,-0.0849042,VALID,19.2236,VALID,324,VALID,0,
2001-09-30, 00:17:00,VALID,917.807,VALID,0,VALID,98.7821,VALID,0,VALID,19.2092,VALID,324,VALID,0,
2001-09-30, 00:18:00,VALID,917.789,VALID,0,VALID,98.7897,VALID,-0.0169808,VALID,19.206,VALID,324,VALID,0,
2001-09-30, 00:19:00,VALID,917.768,VALID,0,VALID,98.7833,VALID,0,VALID,19.1928,VALID,324,VALID,0,
2001-09-30, 00:20:00,VALID,917.781,VALID,0,VALID,98.7795,VALID,0,VALID,19.1998,VALID,324,VALID,0,
2001-09-30, 00:21:00,VALID,917.759,VALID,0,VALID,98.7973,VALID,0,VALID,19.1896,VALID,324,VALID,0,
2001-09-30, 00:22:00,VALID,917.756,VALID,0,VALID,98.824,VALID,0,VALID,19.2159,VALID,324,VALID,0,
2001-09-30, 00:23:00,VALID,917.741,VALID,0,VALID,98.8444,VALID,0,VALID,19.2256,VALID,324,VALID,0,
2001-09-30, 00:24:00,VALID,917.74,VALID,0,VALID,98.8609,VALID,0,VALID,19.2289,VALID,324,VALID,0,
2001-09-30, 00:25:00,VALID,917.737,VALID,0,VALID,98.8609,VALID,0,VALID,19.2284,VALID,324,VALID,0,
2001-09-30, 00:26:00,VALID,917.729,VALID,0,VALID,98.8533,VALID,-0.0169808,VALID,19.246,VALID,327,VALID,0,
2001-09-30, 00:27:00,VALID,917.733,VALID,0,VALID,98.8787,VALID,0,VALID,19.2385,VALID,90,VALID,0.256785,
2001-09-30, 00:28:00,VALID,917.718,VALID,0,VALID,98.8914,VALID,-0.0169808,VALID,19.2517,VALID,95,VALID,0.0522204,
2001-09-30, 00:29:00,VALID,917.705,VALID,0,VALID,98.8825,VALID,0,VALID,19.2545,VALID,97,VALID,0.0730574,
2001-09-30, 00:30:00,VALID,917.692,VALID,0,VALID,98.8889,VALID,0,VALID,19.2545,VALID,97,VALID,0,
2001-09-30, 00:31:00,VALID,917.67,VALID,0,VALID,98.8774,VALID,0.0169808,VALID,19.2679,VALID,97,VALID,0,
2001-09-30, 00:32:00,VALID,917.66,VALID,0,VALID,98.866,VALID,0.0339617,VALID,19.2706,VALID,97,VALID,0,
2001-09-30, 00:33:00,VALID,917.643,VALID,0,VALID,98.8584,VALID,0,VALID,19.2741,VALID,97,VALID,0.048353,
2001-09-30, 00:34:00,VALID,917.635,VALID,0,VALID,98.8558,VALID,0.0169808,VALID,19.2798,VALID,92,VALID,0.24359,
2001-09-30, 00:35:00,VALID,917.638,VALID,0,VALID,98.8431,VALID,0.0169808,VALID,19.2932,VALID,96,VALID,0.762638,
2001-09-30, 00:36:00,VALID,917.614,VALID,0,VALID,98.824,VALID,0,VALID,19.3059,VALID,100,VALID,0.401172,
2001-09-30, 00:37:00,VALID,917.592,VALID,0,VALID,98.7643,VALID,0.0169808,VALID,19.3061,VALID,82,VALID,0.0590049,
2001-09-30, 00:38:00,VALID,917.579,VALID,0,VALID,98.7236,VALID,0.0339617,VALID,19.3126,VALID,90,VALID,0.216947,
2001-09-30, 00:39:00,VALID,917.566,VALID,0,VALID,98.6956,VALID,0.0169808,VALID,19.3128,VALID,97,VALID,0.063528,
2001-09-30, 00:40:00,VALID,917.544,VALID,0,VALID,98.6791,VALID,0.0169808,VALID,19.2994,VALID,120,VALID,0.109375,
2001-09-30, 00:41:00,VALID,917.536,VALID,0,VALID,98.6473,VALID,0,VALID,19.2962,VALID,177,VALID,0.410156,
2001-09-30, 00:42:00,VALID,917.526,VALID,0,VALID,98.6307,VALID,0.0169808,VALID,19.3061,VALID,202,VALID,0.304487,
2001-09-30, 00:43:00,VALID,917.512,VALID,0,VALID,98.6307,VALID,0.0169808,VALID,19.2964,VALID,193,VALID,0.0581826,
2001-09-30, 00:44:00,VALID,917.5,VALID,0,VALID,98.6129,VALID,0.0339617,VALID,19.2964,VALID,189,VALID,0.0915465,
2001-09-30, 00:45:00,VALID,917.49,VALID,0,VALID,98.6053,VALID,0.0679233,VALID,19.2863,VALID,183,VALID,0.021234,
2001-09-30, 00:46:00,VALID,917.488,VALID,0,VALID,98.5939,VALID,0.0339617,VALID,19.2738,VALID,183,VALID,0,
2001-09-30, 00:47:00,VALID,917.482,VALID,0,VALID,98.5989,VALID,-0.0339617,VALID,19.2753,VALID,183,VALID,0,
2001-09-30, 00:48:00,VALID,917.478,VALID,0,VALID,98.5837,VALID,-0.0849042,VALID,19.2619,VALID,183,VALID,0,
2001-09-30, 00:49:00,VALID,917.466,VALID,0,VALID,98.5837,VALID,-0.101885,VALID,19.2527,VALID,181,VALID,0.134332,
2001-09-30, 00:50:00,VALID,917.461,VALID,0,VALID,98.5722,VALID,-0.0509425,VALID,19.2264,VALID,161,VALID,0.462139,
2001-09-30, 00:51:00,VALID,917.472,VALID,0,VALID,98.5824,VALID,-0.0509425,VALID,19.2199,VALID,153,VALID,0.447846,
2001-09-30, 00:52:00,VALID,917.458,VALID,0,VALID,98.5951,VALID,-0.0339617,VALID,19.2169,VALID,140,VALID,0.854367,
2001-09-30, 00:53:00,VALID,917.451,VALID,0,VALID,98.6307,VALID,-0.0509425,VALID,19.2201,VALID,144,VALID,0.987048,
2001-09-30, 00:54:00,VALID,917.455,VALID,0,VALID,98.6498,VALID,-0.0849042,VALID,19.2264,VALID,135,VALID,0.908918,
2001-09-30, 00:55:00,VALID,917.461,VALID,0,VALID,98.6473,VALID,-0.0679233,VALID,19.2398,VALID,131,VALID,0.867588,
2001-09-30, 00:56:00,VALID,917.469,VALID,0,VALID,98.6524,VALID,-0.0679233,VALID,19.2395,VALID,129,VALID,0.576225,
2001-09-30, 00:57:00,VALID,917.456,VALID,0,VALID,98.6663,VALID,-0.0679233,VALID,19.2522,VALID,144,VALID,0.734947,
2001-09-30, 00:58:00,VALID,917.459,VALID,0,VALID,98.6638,VALID,-0.0169808,VALID,19.2681,VALID,143,VALID,0.809495,
2001-09-30, 00:59:00,VALID,917.441,VALID,0,VALID,98.6524,VALID,-0.0849042,VALID,19.2716,VALID,137,VALID,0.773226,
2001-09-30, 01:00:00,VALID,917.43,VALID,0,VALID,98.6155,VALID,-0.0679233,VALID,19.2912,VALID,131,VALID,0.642103,
2001-09-30, 01:01:00,VALID,917.431,VALID,0,VALID,98.6015,VALID,-0.0339617,VALID,19.2813,VALID,132,VALID,0.536458,
2001-09-30, 01:02:00,VALID,917.417,VALID,0,VALID,98.5646,VALID,-0.0509425,VALID,19.2944,VALID,125,VALID,0.6767,
2001-09-30, 01:03:00,VALID,917.406,VALID,0,VALID,98.5837,VALID,-0.0339617,VALID,19.2877,VALID,116,VALID,0.552344,
2001-09-30, 01:04:00,VALID,917.413,VALID,0,VALID,98.5735,VALID,-0.0339617,VALID,19.2977,VALID,114,VALID,0.792969,
2001-09-30, 01:05:00,VALID,917.413,VALID,0,VALID,98.5506,VALID,-0.0679233,VALID,19.3076,VALID,111,VALID,0.673611,
2001-09-30, 01:06:00,VALID,917.42,VALID,0,VALID,98.5112,VALID,-0.0169808,VALID,19.3103,VALID,115,VALID,0.677015,
2001-09-30, 01:07:00,VALID,917.429,VALID,0,VALID,98.4807,VALID,-0.0169808,VALID,19.3267,VALID,129,VALID,0.729492,
2001-09-30, 01:08:00,VALID,917.41,VALID,0,VALID,98.4527,VALID,-0.0509425,VALID,19.3235,VALID,135,VALID,0.56435,
2001-09-30, 01:09:00,VALID,917.418,VALID,0,VALID,98.4222,VALID,-0.0679233,VALID,19.3367,VALID,136,VALID,0.440584,
2001-09-30, 01:10:00,VALID,917.412,VALID,0,VALID,98.3802,VALID,-0.0849042,VALID,19.3401,VALID,140,VALID,0.476172,
2001-09-30, 01:11:00,VALID,917.412,VALID,0,VALID,98.3141,VALID,-0.0679233,VALID,19.3304,VALID,133,VALID,0.516026,
2001-09-30, 01:12:00,VALID,917.414,VALID,0,VALID,98.2836,VALID,-0.0679233,VALID,19.3367,VALID,119,VALID,0.567568,
2001-09-30, 01:13:00,VALID,917.406,VALID,0,VALID,98.2671,VALID,-0.0849042,VALID,19.323,VALID,116,VALID,0.733941,
2001-09-30, 01:14:00,VALID,917.402,VALID,0,VALID,98.2734,VALID,-0.0509425,VALID,19.3168,VALID,111,VALID,0.691306,
2001-09-30, 01:15:00,VALID,917.375,VALID,0,VALID,98.2798,VALID,-0.0339617,VALID,19.3039,VALID,110,VALID,0.860853,
2001-09-30, 01:16:00,VALID,917.376,VALID,0,VALID,98.2899,VALID,-0.0169808,VALID,19.2974,VALID,103,VALID,0.751689,
2001-09-30, 01:17:00,VALID,917.364,VALID,0,VALID,98.2416,VALID,0.0169808,VALID,19.2964,VALID,82,VALID,0.457508,
2001-09-30, 01:18:00,VALID,917.356,VALID,0,VALID,98.2442,VALID,0.0339617,VALID,19.2741,VALID,82,VALID,0.490709,
2001-09-30, 01:19:00,VALID,917.35,VALID,0,VALID,98.2238,VALID,0.0339617,VALID,19.2413,VALID,79,VALID,0.483398,
2001-09-30, 01:20:00,VALID,917.341,VALID,0,VALID,98.2594,VALID,0.0679233,VALID,19.2184,VALID,82,VALID,0.111579,
2001-09-30, 01:21:00,VALID,917.329,VALID,0,VALID,98.3103,VALID,0.0339617,VALID,19.1961,VALID,90,VALID,0.00390625,
2001-09-30, 01:22:00,VALID,917.323,VALID,0,VALID,98.3459,VALID,0.0169808,VALID,19.1799,VALID,90,VALID,0,
2001-09-30, 01:23:00,VALID,917.314,VALID,0,VALID,98.3866,VALID,0.0339617,VALID,19.1672,VALID,145,VALID,0.264186,
2001-09-30, 01:24:00,VALID,917.292,VALID,0,VALID,98.412,VALID,0.0679233,VALID,19.1444,VALID,124,VALID,0.68391,
2001-09-30, 01:25:00,VALID,917.278,VALID,0,VALID,98.454,VALID,0.0339617,VALID,19.122,VALID,119,VALID,0.184961,
2001-09-30, 01:26:00,VALID,917.267,VALID,0,VALID,98.5074,VALID,0.0509425,VALID,19.1054,VALID,119,VALID,0.0540365,
2001-09-30, 01:27:00,VALID,917.252,VALID,0,VALID,98.5494,VALID,0.0339617,VALID,19.0959,VALID,142,VALID,0.541596,
2001-09-30, 01:28:00,VALID,917.236,VALID,0,VALID,98.6028,VALID,0.0169808,VALID,19.0763,VALID,149,VALID,0.508429,
2001-09-30, 01:29:00,VALID,917.218,VALID,0,VALID,98.6536,VALID,0.0169808,VALID,19.0803,VALID,146,VALID,0.720881,
2001-09-30, 01:30:00,VALID,917.214,VALID,0,VALID,98.7185,VALID,0.0169808,VALID,19.0736,VALID,153,VALID,1.07607,
2001-09-30, 01:31:00,VALID,917.206,VALID,0,VALID,98.7744,VALID,0.0169808,VALID,19.0932,VALID,161,VALID,1.11699,
2001-09-30, 01:32:00,VALID,917.182,VALID,0,VALID,98.8316,VALID,0,VALID,19.1001,VALID,147,VALID,1.03639,
2001-09-30, 01:33:00,VALID,917.175,VALID,0,VALID,98.8367,VALID,0,VALID,19.0964,VALID,150,VALID,1.08717,
2001-09-30, 01:34:00,VALID,917.155,VALID,0,VALID,98.8558,VALID,0.0169808,VALID,19.0932,VALID,157,VALID,1.08347,
2001-09-30, 01:35:00,VALID,917.158,VALID,0,VALID,98.8762,VALID,0,VALID,19.0796,VALID,159,VALID,1.08814,
2001-09-30, 01:36:00,VALID,917.152,VALID,0,VALID,98.9029,VALID,0,VALID,19.0738,VALID,147,VALID,0.951225,
2001-09-30, 01:37:00,VALID,917.151,VALID,0,VALID,98.9321,VALID,0,VALID,19.0837,VALID,142,VALID,0.895354,
2001-09-30, 01:38:00,VALID,917.146,VALID,0,VALID,98.9512,VALID,0,VALID,19.0837,VALID,140,VALID,0.740234,
2001-09-30, 01:39:00,VALID,917.146,VALID,0,VALID,98.9779,VALID,0,VALID,19.087,VALID,143,VALID,0.916016,
2001-09-30, 01:40:00,VALID,917.131,VALID,0,VALID,99.0059,VALID,0,VALID,19.08,VALID,139,VALID,0.861064,
2001-09-30, 01:41:00,VALID,917.128,VALID,0,VALID,99.0173,VALID,0,VALID,19.0932,VALID,156,VALID,0.853618,
2001-09-30, 01:42:00,VALID,917.126,VALID,0,VALID,99.0555,VALID,0,VALID,19.1059,VALID,142,VALID,1.02455,
2001-09-30, 01:43:00,VALID,917.112,VALID,0,VALID,99.072,VALID,0,VALID,19.132,VALID,145,VALID,1.23585,
2001-09-30, 01:44:00,VALID,917.105,VALID,0,VALID,99.072,VALID,0,VALID,19.1479,VALID,149,VALID,0.873972,
2001-09-30, 01:45:00,VALID,917.101,VALID,0,VALID,99.0669,VALID,0,VALID,19.1576,VALID,144,VALID,0.864732,
2001-09-30, 01:46:00,VALID,917.096,VALID,0,VALID,99.0491,VALID,0,VALID,19.1802,VALID,148,VALID,1.03826,
2001-09-30, 01:47:00,VALID,917.083,VALID,0,VALID,99.0224,VALID,0,VALID,19.1834,VALID,153,VALID,1.0944,
2001-09-30, 01:48:00,VALID,917.075,VALID,0,VALID,98.9804,VALID,0,VALID,19.2164,VALID,148,VALID,1.33655,
2001-09-30, 01:49:00,VALID,917.071,VALID,0,VALID,98.9448,VALID,0.0169808,VALID,19.2323,VALID,142,VALID,1.43832,
2001-09-30, 01:50:00,VALID,917.067,VALID,0,VALID,98.8571,VALID,-0.0339617,VALID,19.2512,VALID,143,VALID,1.72044,
2001-09-30, 01:51:00,VALID,917.073,VALID,0,VALID,98.7515,VALID,0,VALID,19.2865,VALID,142,VALID,1.25645,
2001-09-30, 01:52:00,VALID,917.071,VALID,0,VALID,98.6358,VALID,0.0169808,VALID,19.3096,VALID,139,VALID,1.27564,
2001-09-30, 01:53:00,VALID,917.053,VALID,0,VALID,98.5125,VALID,0,VALID,19.3419,VALID,149,VALID,1.378,
2001-09-30, 01:54:00,VALID,917.058,VALID,0,VALID,98.3726,VALID,0,VALID,19.3613,VALID,146,VALID,1.18898,
2001-09-30, 01:55:00,VALID,917.043,VALID,0,VALID,98.2505,VALID,0,VALID,19.3908,VALID,146,VALID,1.03405,
2001-09-30, 01:56:00,VALID,917.036,VALID,0,VALID,98.1488,VALID,0,VALID,19.3933,VALID,133,VALID,0.990349,
2001-09-30, 01:57:00,VALID,917.016,VALID,0,VALID,97.9975,VALID,0,VALID,19.4197,VALID,139,VALID,1.49355,
2001-09-30, 01:58:00,VALID,917.009,VALID,0,VALID,97.7953,VALID,0,VALID,19.4259,VALID,150,VALID,1.59375,
2001-09-30, 01:59:00,VALID,917.016,VALID,0,VALID,97.6084,VALID,0,VALID,19.4515,VALID,156,VALID,0.733373,
2001-09-30, 02:00:00,VALID,917.019,VALID,0,VALID,97.4583,VALID,0,VALID,19.4706,VALID,150,VALID,0.131785,
2001-09-30, 02:01:00,VALID,917.022,VALID,0,VALID,97.3528,VALID,-0.0169808,VALID,19.4808,VALID,156,VALID,0.805859,
2001-09-30, 02:02:00,VALID,917.013,VALID,0,VALID,97.2638,VALID,-0.101885,VALID,19.4887,VALID,156,VALID,0.220313,
2001-09-30, 02:03:00,VALID,917.025,VALID,0,VALID,97.2129,VALID,-0.101885,VALID,19.4656,VALID,114,VALID,0.453926,
2001-09-30, 02:04:00,VALID,917.025,VALID,0,VALID,97.1849,VALID,-0.0849042,VALID,19.4828,VALID,175,VALID,0.912007,
2001-09-30, 02:05:00,VALID,917.024,VALID,0,VALID,97.148,VALID,-0.0679233,VALID,19.4858,VALID,121,VALID,0.585537,
2001-09-30, 02:06:00,VALID,917.022,VALID,0,VALID,97.1557,VALID,-0.101885,VALID,19.4887,VALID,91,VALID,0.190905,
2001-09-30, 02:07:00,VALID,917.015,VALID,0,VALID,97.1506,VALID,-0.135847,VALID,19.4793,VALID,85,VALID,0.297508,
2001-09-30, 02:08:00,VALID,917.02,VALID,0,VALID,97.1519,VALID,-0.101885,VALID,19.479,VALID,18,VALID,0.994191,
2001-09-30, 02:09:00,VALID,917.033,VALID,0,VALID,97.143,VALID,-0.135847,VALID,19.4602,VALID,26,VALID,0.835286,
2001-09-30, 02:10:00,VALID,917.022,VALID,0,VALID,97.1722,VALID,-0.118866,VALID,19.4308,VALID,21,VALID,0.65842,
2001-09-30, 02:11:00,VALID,917.023,VALID,0,VALID,97.1849,VALID,-0.118866,VALID,19.3727,VALID,12,VALID,0.28105,
2001-09-30, 02:12:00,VALID,917.032,VALID,0,VALID,97.3248,VALID,-0.101885,VALID,19.3367,VALID,12,VALID,0.256334,
2001-09-30, 02:13:00,VALID,917.035,VALID,0,VALID,97.3986,VALID,-0.101885,VALID,19.2914,VALID,13,VALID,0.277644,
2001-09-30, 02:14:00,VALID,917.02,VALID,0,VALID,97.5359,VALID,-0.0849042,VALID,19.2527,VALID,13,VALID,0.117188,
2001-09-30, 02:15:00,VALID,917.006,VALID,0,VALID,97.6961,VALID,-0.118866,VALID,19.2206,VALID,13,VALID,0.000952744,
2001-09-30, 02:16:00,VALID,916.997,VALID,0,VALID,97.8004,VALID,-0.101885,VALID,19.201,VALID,62,VALID,0.222556,
2001-09-30, 02:17:00,VALID,916.996,VALID,0,VALID,97.925,VALID,0,VALID,19.1906,VALID,43,VALID,0.302154,
2001-09-30, 02:18:00,VALID,916.974,VALID,0,VALID,98.0369,VALID,0,VALID,19.1608,VALID,50,VALID,0.102706,
2001-09-30, 02:19:00,VALID,916.975,VALID,0,VALID,98.0916,VALID,0.0169808,VALID,19.1513,VALID,91,VALID,0.270833,
2001-09-30, 02:20:00,VALID,916.974,VALID,0,VALID,98.2175,VALID,0,VALID,19.1481,VALID,102,VALID,0.375211,
2001-09-30, 02:21:00,VALID,916.97,VALID,0,VALID,98.2976,VALID,0.0169808,VALID,19.1456,VALID,132,VALID,0.35178,
2001-09-30, 02:22:00,VALID,916.966,VALID,0,VALID,98.3395,VALID,0,VALID,19.1384,VALID,137,VALID,0.11238,
2001-09-30, 02:23:00,VALID,916.969,VALID,0,VALID,98.4069,VALID,0.0169808,VALID,19.1357,VALID,134,VALID,0.294577,
2001-09-30, 02:24:00,VALID,916.966,VALID,0,VALID,98.4324,VALID,0,VALID,19.1292,VALID,97,VALID,0.00351562,
2001-09-30, 02:25:00,VALID,916.981,VALID,0,VALID,98.4642,VALID,0,VALID,19.1223,VALID,40,VALID,0.330387,
2001-09-30, 02:26:00,VALID,916.984,VALID,0,VALID,98.4959,VALID,0,VALID,19.1295,VALID,41,VALID,0.562283,
2001-09-30, 02:27:00,VALID,916.992,VALID,0,VALID,98.5176,VALID,-0.0169808,VALID,19.1101,VALID,35,VALID,0.280222,
2001-09-30, 02:28:00,VALID,916.997,VALID,0,VALID,98.5277,VALID,0,VALID,19.0967,VALID,34,VALID,0.0580078,
2001-09-30, 02:29:00,VALID,917.003,VALID,0,VALID,98.5379,VALID,0,VALID,19.0842,VALID,34,VALID,0,
2001-09-30, 02:30:00,VALID,916.996,VALID,0,VALID,98.5583,VALID,-0.0169808,VALID,19.0778,VALID,31,VALID,0.0378289,
2001-09-30, 02:31:00,VALID,917.003,VALID,0,VALID,98.6053,VALID,0,VALID,19.0611,VALID,27,VALID,0.0767578,
2001-09-30, 02:32:00,VALID,917,VALID,0,VALID,98.6206,VALID,-0.0169808,VALID,19.0512,VALID,27,VALID,0,
2001-09-30, 02:33:00,VALID,917.007,VALID,0,VALID,98.6244,VALID,-0.0169808,VALID,19.0517,VALID,27,VALID,0,
2001-09-30, 02:34:00,VALID,917.004,VALID,0,VALID,98.6447,VALID,0.0169808,VALID,19.0418,VALID,27,VALID,0,
2001-09-30, 02:35:00,VALID,916.994,VALID,0,VALID,98.6638,VALID,0.0169808,VALID,19.0321,VALID,27,VALID,0,
2001-09-30, 02:36:00,VALID,916.986,VALID,0,VALID,98.6638,VALID,0,VALID,19.0127,VALID,48,VALID,0,
2001-09-30, 02:37:00,VALID,916.977,VALID,0,VALID,98.707,VALID,0,VALID,19.0095,VALID,57,VALID,0,
2001-09-30, 02:38:00,VALID,916.965,VALID,0,VALID,98.7528,VALID,0.0169808,VALID,19.0162,VALID,62,VALID,0,
2001-09-30, 02:39:00,VALID,916.957,VALID,0,VALID,98.7732,VALID,0,VALID,19.0192,VALID,71,VALID,0,
2001-09-30, 02:40:00,VALID,916.95,VALID,0,VALID,98.7681,VALID,0,VALID,19.0196,VALID,66,VALID,0,
2001-09-30, 02:41:00,VALID,916.945,VALID,0,VALID,98.7833,VALID,0,VALID,19.0157,VALID,72,VALID,0,
2001-09-30, 02:42:00,VALID,916.953,VALID,0,VALID,98.7706,VALID,0.0169808,VALID,18.9931,VALID,71,VALID,0,
2001-09-30, 02:43:00,VALID,916.965,VALID,0,VALID,98.7871,VALID,-0.0169808,VALID,18.9864,VALID,76,VALID,0,
2001-09-30, 02:44:00,VALID,916.959,VALID,0,VALID,98.7884,VALID,-0.0169808,VALID,18.9839,VALID,86,VALID,0,
2001-09-30, 02:45:00,VALID,916.966,VALID,0,VALID,98.7999,VALID,-0.0169808,VALID,18.9811,VALID,86,VALID,0,
2001-09-30, 02:46:00,VALID,916.955,VALID,0,VALID,98.7973,VALID,0,VALID,18.9707,VALID,84,VALID,0,
2001-09-30, 02:47:00,VALID,916.954,VALID,0,VALID,98.8177,VALID,0,VALID,18.9642,VALID,68,VALID,0,
2001-09-30, 02:48:00,VALID,916.95,VALID,0,VALID,98.8139,VALID,-0.0169808,VALID,18.9444,VALID,67,VALID,0,
2001-09-30, 02:49:00,VALID,916.937,VALID,0,VALID,98.8253,VALID,0,VALID,18.9576,VALID,47,VALID,0,
2001-09-30, 02:50:00,VALID,916.94,VALID,0,VALID,98.8278,VALID,0.0339617,VALID,18.9444,VALID,41,VALID,0,
2001-09-30, 02:51:00,VALID,916.922,VALID,0,VALID,98.8304,VALID,0.0169808,VALID,18.9382,VALID,53,VALID,0,
2001-09-30, 02:52:00,VALID,916.927,VALID,0,VALID,98.8609,VALID,0.0169808,VALID,18.9449,VALID,57,VALID,0,
2001-09-30, 02:53:00,VALID,916.913,VALID,0,VALID,98.8316,VALID,0.0169808,VALID,18.925,VALID,70,VALID,0,
2001-09-30, 02:54:00,VALID,916.914,VALID,0,VALID,98.8253,VALID,0.0169808,VALID,18.9123,VALID,70,VALID,0,
2001-09-30, 02:55:00,VALID,916.903,VALID,0,VALID,98.852,VALID,-0.0169808,VALID,18.9059,VALID,77,VALID,0,
2001-09-30, 02:56:00,VALID,916.893,VALID,0,VALID,98.9092,VALID,0,VALID,18.8997,VALID,136,VALID,0,
2001-09-30, 02:57:00,VALID,916.889,VALID,0,VALID,98.9741,VALID,0.0169808,VALID,18.9285,VALID,149,VALID,0.682855,
2001-09-30, 02:58:00,VALID,916.885,VALID,0,VALID,98.9855,VALID,0.0169808,VALID,18.9476,VALID,140,VALID,0.652755,
2001-09-30, 02:59:00,VALID,916.882,VALID,0,VALID,98.9906,VALID,0,VALID,18.9744,VALID,144,VALID,0.426367,
2001-09-30, 03:00:00,VALID,916.878,VALID,0,VALID,98.9893,VALID,0.0339617,VALID,18.9737,VALID,139,VALID,0.574002,
2001-09-30, 03:01:00,VALID,916.891,VALID,0,VALID,98.9868,VALID,0,VALID,18.9707,VALID,147,VALID,0.501478,
2001-09-30, 03:02:00,VALID,916.889,VALID,0,VALID,98.997,VALID,0.0169808,VALID,18.9506,VALID,137,VALID,0.483347,
2001-09-30, 03:03:00,VALID,916.895,VALID,0,VALID,98.9957,VALID,0,VALID,18.9446,VALID,107,VALID,0.548214,
2001-09-30, 03:04:00,VALID,916.896,VALID,0,VALID,98.9804,VALID,0,VALID,18.9446,VALID,127,VALID,0.1856,
2001-09-30, 03:05:00,VALID,916.893,VALID,0,VALID,99.0033,VALID,0,VALID,18.9218,VALID,136,VALID,0.650905,
2001-09-30, 03:06:00,VALID,916.895,VALID,0,VALID,99.0198,VALID,0,VALID,18.9153,VALID,146,VALID,0.570982,
2001-09-30, 03:07:00,VALID,916.894,VALID,0,VALID,99.0351,VALID,-0.0169808,VALID,18.9089,VALID,144,VALID,0.705729,
2001-09-30, 03:08:00,VALID,916.898,VALID,0,VALID,99.0377,VALID,0.0169808,VALID,18.8957,VALID,143,VALID,0.681858,
2001-09-30, 03:09:00,VALID,916.902,VALID,0,VALID,99.0516,VALID,0.0169808,VALID,18.8962,VALID,138,VALID,0.728413,
2001-09-30, 03:10:00,VALID,916.924,VALID,0,VALID,99.0427,VALID,0.0339617,VALID,18.8969,VALID,122,VALID,0.294819,
2001-09-30, 03:11:00,VALID,916.913,VALID,0,VALID,99.0364,VALID,0.0169808,VALID,18.8773,VALID,120,VALID,0.283361,
2001-09-30, 03:12:00,VALID,916.911,VALID,0,VALID,99.0478,VALID,-0.0339617,VALID,18.8614,VALID,123,VALID,0.316211,
2001-09-30, 03:13:00,VALID,916.926,VALID,0,VALID,99.0618,VALID,0,VALID,18.848,VALID,129,VALID,0.333333,
2001-09-30, 03:14:00,VALID,916.939,VALID,0,VALID,99.0758,VALID,0,VALID,18.845,VALID,138,VALID,0.498197,
2001-09-30, 03:15:00,VALID,916.937,VALID,0,VALID,99.105,VALID,0,VALID,18.8581,VALID,154,VALID,0.555954,
2001-09-30, 03:16:00,VALID,916.944,VALID,0,VALID,99.119,VALID,-0.0169808,VALID,18.8549,VALID,153,VALID,0.524239,
2001-09-30, 03:17:00,VALID,916.958,VALID,0,VALID,99.1228,VALID,-0.0339617,VALID,18.8611,VALID,158,VALID,0.626379,
2001-09-30, 03:18:00,VALID,916.957,VALID,0,VALID,99.1178,VALID,-0.0849042,VALID,18.8681,VALID,163,VALID,0.683789,
2001-09-30, 03:19:00,VALID,916.967,VALID,0,VALID,99.1216,VALID,-0.0849042,VALID,18.8651,VALID,158,VALID,0.341488,
2001-09-30, 03:20:00,VALID,916.981,VALID,0,VALID,99.1165,VALID,-0.0679233,VALID,18.8656,VALID,165,VALID,0.269631,
2001-09-30, 03:21:00,VALID,916.983,VALID,0,VALID,99.1139,VALID,-0.0169808,VALID,18.8683,VALID,170,VALID,0.339227,
2001-09-30, 03:22:00,VALID,916.974,VALID,0,VALID,99.1178,VALID,-0.0679233,VALID,18.8778,VALID,158,VALID,0.435156,
2001-09-30, 03:23:00,VALID,916.969,VALID,0,VALID,99.1228,VALID,-0.0339617,VALID,18.8748,VALID,150,VALID,0.631836,
2001-09-30, 03:24:00,VALID,916.953,VALID,0,VALID,99.1279,VALID,0,VALID,18.8711,VALID,156,VALID,0.581931,
2001-09-30, 03:25:00,VALID,916.932,VALID,0,VALID,99.1279,VALID,-0.0169808,VALID,18.8711,VALID,148,VALID,0.867393,
2001-09-30, 03:26:00,VALID,916.927,VALID,0,VALID,99.1241,VALID,-0.0679233,VALID,18.8713,VALID,147,VALID,1.05188,
2001-09-30, 03:27:00,VALID,916.915,VALID,0,VALID,99.1343,VALID,-0.0169808,VALID,18.8778,VALID,148,VALID,1.06691,
2001-09-30, 03:28:00,VALID,916.908,VALID,0,VALID,99.1165,VALID,-0.0679233,VALID,18.8743,VALID,143,VALID,0.749155,
2001-09-30, 03:29:00,VALID,916.912,VALID,0,VALID,99.0974,VALID,-0.0339617,VALID,18.878,VALID,141,VALID,0.942909,
2001-09-30, 03:30:00,VALID,916.907,VALID,0,VALID,99.0872,VALID,-0.0339617,VALID,18.8651,VALID,125,VALID,0.610677,
2001-09-30, 03:31:00,VALID,916.914,VALID,0,VALID,99.0593,VALID,0,VALID,18.8618,VALID,69,VALID,0.294705,
2001-09-30, 03:32:00,VALID,916.924,VALID,0,VALID,99.0682,VALID,-0.0339617,VALID,18.842,VALID,97,VALID,0.668269,
2001-09-30, 03:33:00,VALID,916.909,VALID,0,VALID,99.0885,VALID,-0.0169808,VALID,18.851,VALID,114,VALID,0.483953,
2001-09-30, 03:34:00,VALID,916.9,VALID,0,VALID,99.0656,VALID,0,VALID,18.8713,VALID,97,VALID,0.633413,
2001-09-30, 03:35:00,VALID,916.901,VALID,0,VALID,99.0542,VALID,0,VALID,18.8708,VALID,106,VALID,0.853413,
2001-09-30, 03:36:00,VALID,916.874,VALID,0,VALID,99.0389,VALID,-0.0339617,VALID,18.9105,VALID,102,VALID,0.842988,
2001-09-30, 03:37:00,VALID,916.866,VALID,0,VALID,99.0084,VALID,0,VALID,18.92,VALID,109,VALID,1.01502,